When you browse on this site, cookies collect data to enhance your experience and personalize the content and advertising you see.
Visit our Privacy Policy to learn more. By continuing to use the site, you agree to this use of cookies and data.
  • In Lithuania
  • List of Countries
  • For 7 days
  • Water Temperature
  • Weather Map
  • Weather Widgets
  • user-avatar
    Login

    Hourly Weather Boma

    Today, 14 November, Thursday

    Time Temperature Precipitation Wind Pressure Humidity
    00:00 +22°C° 0 mm 0 mps 698 mmHg 80%
    01:00 +21°C° 0 mm 0 mps 698 mmHg 81%
    02:00 +21°C° 0 mm 0 mps 698 mmHg 82%
    03:00 +21°C° 0 mm 0 mps 698 mmHg 83%
    04:00 +21°C° 0 mm 0 mps 698 mmHg 84%
    05:00 +21°C° 0 mm 0 mps 698 mmHg 83%
    06:00 +22°C° 0 mm 0 mps 699 mmHg 81%
    07:00 +22°C° 0 mm 0 mps 700 mmHg 79%
    08:00 +25°C° 0 mm 0 mps 700 mmHg 66%
    09:00 +30°C° 0 mm 1 mps 700 mmHg 54%
    10:00 +33°C° 0 mm 1 mps 700 mmHg 41%
    11:00 +33°C° 0 mm 1 mps 700 mmHg 37%
    12:00 +35°C° 0 mm 2 mps 699 mmHg 33%
    13:00 +36°C° 0 mm 2 mps 698 mmHg 29%
    14:00 +36°C° 0 mm 2 mps 698 mmHg 31%
    15:00 +34°C° 0 mm 1 mps 697 mmHg 33%
    16:00 +34°C° 0 mm 1 mps 697 mmHg 35%
    17:00 +31°C° 0 mm 1 mps 697 mmHg 41%
    18:00 +29°C° 0 mm 1 mps 697 mmHg 48%
    19:00 +24°C° 0 mm 0 mps 698 mmHg 55%
    20:00 +24°C° 0 mm 0 mps 698 mmHg 59%
    21:00 +23°C° 0 mm 0 mps 699 mmHg 63%
    22:00 +22°C° 0 mm 0 mps 699 mmHg 67%
    23:00 +22°C° 0 mm 0 mps 699 mmHg 68%

    Tomorrow, 15 November, Friday

    Time Temperature Precipitation Wind Pressure Humidity
    00:00 +22°C° 0 mm 0 mps 699 mmHg 69%
    01:00 +21°C° 0 mm 0 mps 699 mmHg 70%
    02:00 +21°C° 0 mm 0 mps 698 mmHg 72%
    03:00 +21°C° 0 mm 0 mps 698 mmHg 74%
    04:00 +20°C° 0 mm 0 mps 698 mmHg 76%
    05:00 +21°C° 0 mm 0 mps 698 mmHg 77%
    06:00 +21°C° 0 mm 0 mps 699 mmHg 77%
    07:00 +21°C° 0 mm 0 mps 699 mmHg 78%
    08:00 +24°C° 0 mm 0 mps 700 mmHg 70%
    09:00 +26°C° 0 mm 0 mps 700 mmHg 62%
    10:00 +28°C° 0 mm 0 mps 700 mmHg 54%
    11:00 +29°C° 0 mm 0 mps 699 mmHg 49%
    12:00 +32°C° 0 mm 1 mps 698 mmHg 45%
    13:00 +32°C° 0 mm 1 mps 697 mmHg 41%
    14:00 +32°C° 0 mm 1 mps 697 mmHg 43%
    15:00 +32°C° 0 mm 1 mps 697 mmHg 44%
    16:00 +31°C° 0 mm 1 mps 696 mmHg 46%
    17:00 +27°C° 0 mm 0 mps 696 mmHg 51%
    18:00 +25°C° 0 mm 0 mps 697 mmHg 56%
    19:00 +23°C° 0 mm 0 mps 697 mmHg 61%
    20:00 +23°C° 0 mm 0 mps 697 mmHg 62%
    21:00 +23°C° 0 mm 0 mps 698 mmHg 63%
    22:00 +22°C° 0 mm 0 mps 698 mmHg 64%
    23:00 +22°C° 0 mm 0 mps 698 mmHg 66%

    Day after tomorrow, 16 November, Saturday

    Time Temperature Precipitation Wind Pressure Humidity
    00:00 +22°C° 0 mm 0 mps 698 mmHg 68%
    01:00 +21°C° 0 mm 0 mps 698 mmHg 70%
    02:00 +21°C° 0 mm 0 mps 698 mmHg 72%
    03:00 +20°C° 0 mm 0 mps 697 mmHg 74%
    04:00 +20°C° 0 mm 0 mps 697 mmHg 76%
    05:00 +20°C° 0 mm 0 mps 698 mmHg 76%
    06:00 +21°C° 0 mm 0 mps 698 mmHg 77%
    07:00 +21°C° 0 mm 0 mps 699 mmHg 77%
    08:00 +24°C° 0 mm 0 mps 699 mmHg 66%
    09:00 +28°C° 0 mm 0 mps 700 mmHg 55%
    10:00 +31°C° 0 mm 0 mps 700 mmHg 44%
    11:00 +32°C° 0 mm 0 mps 699 mmHg 39%
    12:00 +35°C° 0 mm 1 mps 698 mmHg 34%
    13:00 +36°C° 0 mm 1 mps 698 mmHg 28%
    14:00 +35°C° 0 mm 1 mps 697 mmHg 30%
    15:00 +35°C° 0 mm 1 mps 696 mmHg 32%
    16:00 +34°C° 0 mm 1 mps 696 mmHg 33%
    17:00 +32°C° 0 mm 1 mps 696 mmHg 41%
    18:00 +29°C° 0 mm 1 mps 696 mmHg 49%
    19:00 +27°C° 0 mm 1 mps 696 mmHg 56%
    20:00 +26°C° 0 mm 1 mps 697 mmHg 61%
    21:00 +25°C° 0 mm 1 mps 697 mmHg 66%
    22:00 +25°C° 0 mm 1 mps 698 mmHg 70%
    23:00 +25°C° 0 mm 1 mps 698 mmHg 71%

    17 November, Sunday

    Time Temperature Precipitation Wind Pressure Humidity
    00:00 +25°C° 0 mm 1 mps 698 mmHg 72%
    01:00 +23°C° 0 mm 0 mps 698 mmHg 73%
    02:00 +22°C° 0 mm 0 mps 698 mmHg 78%
    03:00 +21°C° 0 mm 0 mps 697 mmHg 84%
    04:00 +21°C° 0 mm 0 mps 697 mmHg 90%
    05:00 +23°C° 0 mm 1 mps 698 mmHg 90%
    06:00 +23°C° 0 mm 1 mps 698 mmHg 90%
    07:00 +23°C° 0 mm 1 mps 698 mmHg 90%
    08:00 +26°C° 0 mm 1 mps 699 mmHg 78%
    09:00 +29°C° 0 mm 1 mps 699 mmHg 65%
    10:00 +32°C° 0 mm 1 mps 700 mmHg 52%
    11:00 +34°C° 0 mm 1 mps 699 mmHg 45%
    12:00 +35°C° 0 mm 1 mps 698 mmHg 37%
    13:00 +37°C° 0 mm 1 mps 698 mmHg 29%
    14:00 +36°C° 0 mm 1 mps 697 mmHg 32%
    15:00 +35°C° 0 mm 1 mps 696 mmHg 35%
    16:00 +33°C° 0 mm 1 mps 696 mmHg 38%
    17:00 +31°C° 0 mm 1 mps 696 mmHg 46%
    18:00 +29°C° 0 mm 1 mps 696 mmHg 53%
    19:00 +26°C° 0 mm 1 mps 697 mmHg 61%
    20:00 +26°C° 0 mm 1 mps 697 mmHg 65%
    21:00 +25°C° 0 mm 1 mps 698 mmHg 69%
    22:00 +23°C° 0 mm 0 mps 698 mmHg 73%
    23:00 +25°C° 0 mm 1 mps 698 mmHg 74%

    18 November, Monday

    Time Temperature Precipitation Wind Pressure Humidity
    00:00 +25°C° 0 mm 1 mps 698 mmHg 74%
    01:00 +25°C° 0 mm 1 mps 698 mmHg 75%
    02:00 +24°C° 0.1 mm 1 mps 698 mmHg 80%
    03:00 +22°C° 0.1 mm 0 mps 698 mmHg 85%
    04:00 +21°C° 0.1 mm 0 mps 698 mmHg 90%
    05:00 +21°C° 0 mm 0 mps 698 mmHg 90%
    06:00 +21°C° 0 mm 0 mps 698 mmHg 90%
    07:00 +21°C° 0 mm 0 mps 699 mmHg 90%
    08:00 +25°C° 0 mm 0 mps 699 mmHg 74%
    09:00 +28°C° 0 mm 0 mps 700 mmHg 58%
    10:00 +32°C° 0 mm 0 mps 700 mmHg 43%
    11:00 +34°C° 0 mm 1 mps 699 mmHg 37%
    12:00 +35°C° 0 mm 1 mps 699 mmHg 32%
    13:00 +37°C° 0 mm 2 mps 698 mmHg 26%
    14:00 +35°C° 0 mm 1 mps 698 mmHg 29%
    15:00 +34°C° 0 mm 1 mps 697 mmHg 31%
    16:00 +34°C° 0 mm 1 mps 696 mmHg 34%
    17:00 +31°C° 0 mm 1 mps 697 mmHg 39%
    18:00 +29°C° 0 mm 1 mps 697 mmHg 45%
    19:00 +24°C° 0 mm 0 mps 697 mmHg 50%
    20:00 +24°C° 0 mm 0 mps 698 mmHg 55%
    21:00 +23°C° 0 mm 0 mps 698 mmHg 60%
    22:00 +22°C° 0 mm 0 mps 699 mmHg 65%
    23:00 +22°C° 0 mm 0 mps 699 mmHg 65%

    19 November, Tuesday

    Time Temperature Precipitation Wind Pressure Humidity
    00:00 +22°C° 0 mm 0 mps 699 mmHg 65%
    01:00 +22°C° 0 mm 0 mps 699 mmHg 65%
    02:00 +21°C° 0 mm 0 mps 699 mmHg 72%
    03:00 +21°C° 0 mm 0 mps 698 mmHg 78%
    04:00 +20°C° 0 mm 0 mps 698 mmHg 84%
    05:00 +20°C° 0 mm 0 mps 699 mmHg 85%
    06:00 +21°C° 0 mm 0 mps 699 mmHg 87%
    07:00 +21°C° 0 mm 0 mps 699 mmHg 88%
    08:00 +24°C° 0 mm 0 mps 700 mmHg 76%
    09:00 +27°C° 0 mm 0 mps 700 mmHg 64%
    10:00 +32°C° 0 mm 1 mps 700 mmHg 52%
    11:00 +33°C° 0 mm 1 mps 700 mmHg 44%
    12:00 +35°C° 0 mm 1 mps 699 mmHg 35%
    13:00 +37°C° 0 mm 2 mps 699 mmHg 27%
    14:00 +36°C° 0 mm 2 mps 698 mmHg 28%
    15:00 +36°C° 0 mm 2 mps 698 mmHg 30%
    16:00 +35°C° 0 mm 2 mps 697 mmHg 32%
    17:00 +31°C° 0 mm 1 mps 697 mmHg 39%
    18:00 +29°C° 0 mm 1 mps 697 mmHg 45%
    19:00 +24°C° 0 mm 0 mps 697 mmHg 52%
    20:00 +24°C° 0 mm 0 mps 697 mmHg 56%
    21:00 +23°C° 0 mm 0 mps 698 mmHg 60%
    22:00 +22°C° 0 mm 0 mps 698 mmHg 65%
    23:00 +22°C° 0 mm 0 mps 698 mmHg 66%
    Show more